Location: Melque
(41.0517°N, 4.4694°W)
Time: 06:24:14
(UTC+00:00)

SKYMED 2 - Pass Details

Date: 19 March 2026
Orbit: 622 x 624 km, 97.9° (Epoch: 14 April)

Event Time Altitude Azimuth Distance (km) Brightness Sun altitude
Rises 04:11:01 0° 118° (ESE) 2,896 7.5 -25.1°
Reaches altitude 10° 04:14:14 10° 92° (E) 1,995 7.0 -24.6°
Maximum altitude 04:16:19 13° 63° (ENE) 1,780 6.9 -24.2°
Drops below altitude 10° 04:18:25 10° 34° (NE) 2,001 6.9 -23.8°
Sets 04:21:38 0° 8° (N) 2,913 7.4 -23.3°
